Tracking 23446 objects as of 20-Jun-2021
HD Live streaming from Space Station
objects crossing your sky now

YAOGAN-30 X

Track YAOGAN-30 X now!
10-day predictions


NORAD ID: 48423
Int'l Code: 2021-039A
Perigee: 602.1 km
Apogee: 608.5 km
Inclination: 35.0 °
Period: 96.6 minutes
Semi major axis: 6976 km
RCS: Unknown
Launch date: May 6, 2021
Source: People's Republic of China (PRC)
Launch site: Xichang Space Center, China (XSC)
aabbcc
Your satellite tracking list
Your tracking list is empty




NASA's NSSDC Master Catalog

Two Line Element Set (TLE):
1 48423U 21039A   21169.51002210  .00000149  00000-0  17973-4 0  9991
2 48423  34.9998 217.9729 0004586 122.1054 238.0106 14.89937160  6363
Source of the keplerian elements: AFSPC